Location: ShareBrained
(45.5589°N, 122.6491°W)
Time: 13:04:18
(UTC-08:00)

NOAA 19 - Pass Details

Date: 21 January 2020
Orbit: 840 x 862 km, 99.2° (Epoch: 24 February)

Event Time Altitude Azimuth Distance (km) Brightness Sun altitude
Rises 05:21:53 0° 22° (NNE) 3,409 8.6 -24.4°
Reaches altitude 10° 05:24:28 10° 31° (NNE) 2,468 7.9 -24.0°
Maximum altitude 05:29:27 35° 97° (E) 1,325 6.8 -23.1°
Drops below altitude 10° 05:34:24 10° 163° (SSE) 2,452 7.9 -22.2°
Sets 05:36:57 0° 172° (S) 3,383 8.5 -21.8°
